Temp
52 52 51 51 50 50 50 50 51 51 51 51 51 52 50 50 50 48 47 46 45 44
51 51 50 50 50 50 51 53 51 51 51 52 52 51 50 49 48 48 47 46 46 44
51 51 51 51 52 52 51 52 51 51 51 51 51 51 49 48 48 47 48 48 46 45
51 52 52 52 52 52 52 51 51 52 52 51 50 50 48 47 48 48 47 47 47 46
52 52 51 51 51 51 51 51 51 51 52 52 51 50 48 48 49 48 47 48 46 46
51 51 50 51 51 51 50 50 50 51 51 51 51 51 50 49 50 50 48 47 46 46
51 51 51 50 50 50 50 50 50 50 51 51 51 51 51 50 50 49 50 48 46 46
51 51 50 50 50 50 50 50 50 50 51 51 50 52 50 50 48 48 47 46 46 47
51 51 50 50 50 50 50 49 49 50 49 49 50 49 49 50 48 47 45 44 45 45
52 52 51 52 51 50 48 48 47 48 48 48 48 47 48 50 47 45 44 44 44 44
53 53 52 51 49 48 47 47 47 48 48 47 49 47 46 47 46 45 44 44 43 43
53 52 51 50 48 48 47 47 47 48 47 46 48 45 46 46 45 44 43 44 44 44
53 52 51 49 48 48 47 47 48 48 47 47 47 44 44 46 46 43 43 44 46 45
52 51 50 48 47 47 46 46 45 46 46 46 46 46 43 43 46 44 43 44 44 46
MSLP
1019.71 1020.09 1020.62 1020.82 1020.99 1021.27 1021.17 1021.21 1020.86 1020.37 1020.45 1020.45 1020.59 1020.60 1020.55 1020.43 1020.43 1020.40 1020.39 1020.36 1020.28 1020.19
1019.71 1020.17 1020.63 1020.95 1021.15 1021.08 1020.96 1020.48 1020.32 1020.65 1020.71 1020.69 1020.71 1020.67 1020.56 1020.44 1020.34 1020.33 1020.20 1020.03 1019.88 1019.80
1019.93 1020.42 1020.80 1020.88 1020.86 1020.94 1020.61 1020.45 1020.68 1020.73 1020.71 1020.65 1020.56 1020.47 1020.49 1020.34 1020.23 1020.20 1020.03 1019.84 1019.63 1019.33
1020.20 1020.55 1020.65 1020.62 1020.79 1020.83 1020.63 1020.69 1020.75 1020.71 1020.59 1020.48 1020.36 1020.27 1020.30 1020.13 1019.95 1019.93 1019.73 1019.41 1019.17 1018.86
1020.05 1020.30 1020.57 1020.64 1020.65 1020.68 1020.61 1020.59 1020.62 1020.51 1020.37 1020.22 1020.03 1019.92 1019.91 1019.73 1019.51 1019.43 1019.19 1018.86 1018.80 1018.53
1020.06 1020.43 1020.63 1020.47 1020.51 1020.59 1020.67 1020.54 1020.34 1020.29 1020.15 1020.03 1019.73 1019.49 1019.25 1019.24 1019.05 1018.76 1018.63 1018.69 1018.64 1018.26
1020.14 1020.38 1020.47 1020.52 1020.54 1020.58 1020.51 1020.34 1020.09 1019.93 1019.72 1019.43 1019.20 1019.01 1018.81 1018.64 1018.35 1018.17 1018.10 1018.13 1018.18 1017.90
1020.08 1020.25 1020.43 1020.47 1020.40 1020.27 1020.11 1019.99 1019.91 1019.63 1019.33 1019.10 1018.99 1018.65 1018.42 1018.26 1018.12 1018.04 1017.95 1017.92 1017.78 1017.44
1020.02 1020.24 1020.30 1020.19 1020.14 1020.02 1019.89 1019.83 1019.63 1019.42 1019.22 1018.96 1018.70 1018.34 1018.17 1018.12 1018.06 1018.04 1018.00 1017.70 1017.33 1017.00
1019.76 1019.89 1019.94 1019.92 1019.91 1019.85 1019.77 1019.62 1019.45 1019.19 1019.00 1018.68 1018.43 1018.15 1018.08 1018.07 1018.12 1018.12 1017.93 1017.60 1017.13 1016.62
1019.50 1019.55 1019.70 1019.78 1019.85 1019.78 1019.63 1019.51 1019.22 1018.80 1018.56 1018.42 1018.13 1018.03 1018.03 1018.06 1018.03 1017.91 1017.62 1017.27 1016.79 1016.28
1019.43 1019.47 1019.57 1019.67 1019.64 1019.56 1019.48 1019.19 1018.84 1018.50 1018.31 1018.24 1018.06 1017.86 1017.85 1017.88 1017.77 1017.54 1017.08 1016.58 1016.22 1015.81
1019.38 1019.44 1019.48 1019.54 1019.58 1019.41 1019.30 1019.03 1018.66 1018.23 1018.03 1018.08 1018.00 1017.65 1017.56 1017.54 1017.42 1017.08 1016.56 1015.96 1015.48 1015.16
1019.28 1019.23 1019.27 1019.31 1019.37 1019.24 1019.07 1018.79 1018.43 1018.17 1018.01 1017.92 1017.78 1017.42 1017.19 1016.94 1016.80 1016.40 1015.97 1015.45 1014.88 1014.36
Wind_Speed
7 4 4 3 2 1 1 2 1 4 5 5 5 3 3 2 2 3 3 5 4 4
6 6 4 4 3 2 1 2 6 4 4 3 1 2 3 2 2 3 3 4 5 4
5 5 4 3 3 1 3 3 3 3 3 3 4 3 3 3 3 3 4 4 5 5
5 5 3 2 1 2 2 3 3 3 4 4 5 4 4 5 5 5 6 5 5 8
4 3 1 3 4 3 4 4 4 4 5 5 6 6 6 8 6 6 7 7 6 9
3 2 5 4 4 4 4 5 5 4 5 6 7 7 8 8 9 9 8 5 7 9
3 4 4 4 5 5 5 6 6 5 6 7 8 8 8 9 10 9 7 5 6 8
4 3 4 5 5 5 5 5 5 5 6 6 6 6 7 8 8 7 7 6 7 7
4 4 5 5 5 4 5 4 4 5 5 7 6 9 10 6 4 4 6 8 8 8
4 5 5 3 3 5 5 4 5 5 5 6 5 5 1 4 3 6 7 8 9 9
3 3 2 3 5 5 4 4 5 6 5 5 4 4 3 5 4 6 8 8 9 9
3 3 3 4 5 4 4 4 5 5 7 6 5 7 5 4 4 7 9 9 8 9
2 3 4 4 5 3 3 6 6 8 5 5 6 6 8 6 4 7 6 9 8 11
2 2 3 4 2 3 5 5 5 5 3 5 5 8 9 11 6 6 7 7 7 6
Wind_Direction
109 102 101 108 96 142 146 229 293 29 14 18 24 36 39 23 351 347 323 312 299 286
101 104 126 141 163 153 203 7 37 17 359 344 328 331 350 336 323 328 320 311 306 303
119 131 149 148 96 15 9 25 4 333 318 281 277 286 319 299 298 312 306 299 304 297
134 142 121 78 279 299 312 290 286 286 294 282 275 277 281 274 273 273 285 287 289 297
114 103 107 248 252 252 268 282 273 278 285 282 266 267 263 271 273 262 273 277 300 301
130 180 241 253 264 271 267 274 282 271 276 282 277 273 269 264 268 266 261 278 298 303
204 231 256 276 275 271 255 271 285 277 272 266 276 280 282 279 273 273 270 272 296 301
239 242 259 261 266 273 273 276 279 284 288 286 290 285 288 292 290 287 295 299 300 300
239 243 249 257 274 290 290 288 290 295 292 300 297 298 310 311 322 320 310 308 305 297
232 248 245 251 289 281 290 288 293 292 286 283 285 300 45 6 345 324 313 305 306 300
207 214 253 284 279 289 286 291 287 286 279 273 259 255 284 343 337 314 304 299 295 282
207 243 268 272 294 288 282 277 275 270 285 249 268 269 274 338 312 303 300 295 286 279
228 262 275 290 293 274 272 282 295 294 269 256 277 281 279 273 295 291 293 298 290 286
268 280 277 284 286 286 288 289 292 299 296 280 275 297 286 279 272 275 288 293 293 295